Content
SEND FEEDBACK

Daily
Averages
Monthly
Summary
United States of America

BONAPARTE, IOWA


Home > North America > United States > Iowa
Elevation: 669 feet     Latitude: 40 43N     Longitude: 091 57W

WEATHER
 
SELECT A DAY
Number of Records: 411,725;   Date Range: 4/23/95 - 10/20/14
 
SHARE

PRINT THIS DATA

[ ← Previous Day ]
WEATHER ALMANAC - JANUARY 3, 2013
[ Next Day → ]
[ °C ]   °F
Weather ElementAverageHighLow
Temperature23.1 °F30.2 °F (6:15 am)10.4 °F (10:55 pm)
Dewpoint16.8 °F24.8 °F (12:35 am)6.8 °F (9:35 pm)
Humidity76.9 %86 % (12:35 am)63 % (4:15 pm)
Barometer30.29 in30.38 in (7:15 pm)30.15 in (12:35 am)
Wind Speed10.4 mph20.7 mph (8:55 am)
Wind Gust26.5 mph (8:55 am)
Weather ElementAverage
Visibility10 mi
Wind DirectionWNW (277.7 °)

Weather ElementTotal
Precipitation---
Heating Degree Days44.7 (Base 65)
Averaged from 70 records on January 3, 2013
WEATHER CONDITIONS BREAKOUT
WIND DIRECTION BREAKOUT
WEATHER BY HOUR - JANUARY 3, 2013
[ °C ]   °F
Local TimeTemperatureDewpointHumidityBarometerVisibilityWind DirectionWind SpeedGust SpeedPrecipitationEventsConditions
12:35 AM28.4 °F24.8 °F86 %30.15 in10.0 miWest (260°)10.4 mphOvercast
12:55 AM28.4 °F23.0 °F80 %30.15 in10.0 miWest (260°)8.1 mphMostly Cloudy
1:15 AM28.4 °F24.8 °F86 %30.15 in10.0 miWest (260°)8.1 mphOvercast
1:35 AM28.4 °F24.8 °F86 %30.16 in10.0 miWest (270°)10.4 mphOvercast
1:55 AM28.4 °F24.8 °F86 %30.16 in10.0 miWest (270°)10.4 mphOvercast
2:15 AM28.4 °F24.8 °F86 %30.17 in10.0 miWest (280°)9.2 mphOvercast
2:35 AM28.4 °F24.8 °F86 %30.18 in10.0 miWest (280°)9.2 mphOvercast
2:55 AM28.4 °F24.8 °F86 %30.18 in10.0 miWest (270°)8.1 mphOvercast
3:15 AM28.4 °F24.8 °F86 %30.19 in10.0 miWest (270°)8.1 mphOvercast
3:35 AM28.4 °F23.0 °F80 %30.19 in10.0 miWest (270°)6.9 mphOvercast
3:55 AM28.4 °F23.0 °F80 %30.19 in10.0 miWest (270°)8.1 mphOvercast
4:15 AM28.4 °F23.0 °F80 %30.19 in10.0 miWest (260°)6.9 mphOvercast
4:35 AM28.4 °F23.0 °F80 %30.19 in10.0 miWest (260°)6.9 mphOvercast
4:55 AM28.4 °F24.8 °F86 %30.20 in10.0 miWest (260°)5.8 mphOvercast
5:15 AM28.4 °F24.8 °F86 %30.20 in10.0 miWest (260°)5.8 mphOvercast
5:35 AM28.4 °F24.8 °F86 %30.20 in10.0 miWSW (250°)4.6 mphOvercast
5:55 AM28.4 °F24.8 °F86 %30.20 in10.0 miWSW (240°)4.6 mphOvercast
6:15 AM30.2 °F24.8 °F80 %30.21 in10.0 miWSW (250°)5.8 mphOvercast
6:35 AM30.2 °F24.8 °F80 %30.21 in10.0 miWest (260°)6.9 mphOvercast
6:55 AM30.2 °F24.8 °F80 %30.22 in10.0 miWest (270°)9.2 mphOvercast
7:35 AM30.2 °F24.8 °F80 %30.23 in10.0 miWest (280°)9.2 mphOvercast
7:55 AM30.2 °F24.8 °F80 %30.23 in10.0 miWest (280°)10.4 mphOvercast
8:15 AM30.2 °F24.8 °F80 %30.24 in10.0 miWNW (290°)11.5 mph16.1 mphOvercast
8:35 AM30.2 °F24.8 °F80 %30.25 in10.0 miWNW (300°)12.7 mphOvercast
8:55 AM26.6 °F21.2 °F80 %30.26 in10.0 miNNW (330°)20.7 mph26.5 mphOvercast
9:15 AM24.8 °F19.4 °F80 %30.28 in10.0 miNNW (330°)15.0 mphOvercast
9:35 AM24.8 °F19.4 °F80 %30.29 in7.0 miNW (320°)15.0 mphOvercast
9:55 AM24.8 °F17.6 °F74 %30.30 in10.0 miNW (310°)16.1 mph23.0 mphOvercast
10:15 AM24.8 °F17.6 °F74 %30.31 in10.0 miNW (310°)16.1 mph21.9 mphOvercast
10:35 AM24.8 °F17.6 °F74 %30.32 in10.0 miWNW (300°)16.1 mph21.9 mphOvercast
10:55 AM24.8 °F17.6 °F74 %30.32 in10.0 miNW (310°)15.0 mph18.4 mphMostly Cloudy
11:15 AM26.6 °F17.6 °F69 %30.31 in10.0 miWNW (290°)12.7 mphScattered Clouds
11:35 AM26.6 °F19.4 °F74 %30.31 in10.0 miWest (280°)16.1 mph20.7 mphMostly Cloudy
11:55 AM26.6 °F17.6 °F69 %30.30 in10.0 miWest (270°)18.4 mph26.5 mphMostly Cloudy
12:15 PM26.6 °F17.6 °F69 %30.31 in10.0 miWNW (290°)20.7 mph26.5 mphScattered Clouds
12:35 PM26.6 °F17.6 °F69 %30.30 in10.0 miWest (280°)20.7 mph26.5 mphScattered Clouds
12:55 PM24.8 °F15.8 °F69 %30.30 in10.0 miWNW (290°)20.7 mphScattered Clouds
1:15 PM26.6 °F15.8 °F64 %30.30 in10.0 miWest (280°)15.0 mph21.9 mphClear
1:35 PM26.6 °F15.8 °F64 %30.30 in10.0 miWest (280°)15.0 mphClear
1:55 PM26.6 °F15.8 °F64 %30.30 in10.0 miWest (280°)16.1 mph20.7 mphClear
2:15 PM26.6 °F15.8 °F64 %30.30 in10.0 miWest (280°)15.0 mph19.6 mphClear
2:35 PM26.6 °F15.8 °F64 %30.31 in10.0 miWest (280°)16.1 mphClear
2:55 PM26.6 °F15.8 °F64 %30.31 in10.0 miWNW (300°)15.0 mphClear
3:15 PM24.8 °F15.8 °F69 %30.32 in10.0 miWNW (300°)15.0 mph19.6 mphClear
3:35 PM24.8 °F15.8 °F69 %30.33 in10.0 miWNW (300°)13.8 mphClear
3:55 PM24.8 °F14.0 °F64 %30.33 in10.0 miWNW (290°)13.8 mph17.3 mphClear
4:15 PM23.0 °F12.2 °F63 %30.34 in10.0 miWNW (290°)12.7 mphClear
4:35 PM21.2 °F12.2 °F68 %30.34 in10.0 miWNW (290°)11.5 mphClear
4:55 PM21.2 °F12.2 °F68 %30.35 in10.0 miWNW (300°)12.7 mph17.3 mphClear
5:15 PM19.4 °F10.4 °F68 %30.35 in10.0 miWNW (300°)10.4 mphClear
5:35 PM17.6 °F10.4 °F73 %30.36 in10.0 miWNW (300°)9.2 mphClear
5:55 PM17.6 °F10.4 °F73 %30.36 in10.0 miNW (310°)6.9 mphClear
6:15 PM15.8 °F10.4 °F79 %30.37 in10.0 miNW (310°)8.1 mphClear
6:35 PM15.8 °F10.4 °F79 %30.37 in10.0 miWNW (300°)6.9 mphClear
6:55 PM14.0 °F8.6 °F79 %30.37 in10.0 miWNW (290°)5.8 mphClear
7:15 PM14.0 °F8.6 °F79 %30.38 in10.0 miWNW (290°)5.8 mphClear
7:35 PM14.0 °F8.6 °F79 %30.38 in10.0 miWest (280°)6.9 mphClear
7:55 PM14.0 °F8.6 °F79 %30.37 in10.0 miWest (280°)9.2 mphClear
8:15 PM14.0 °F8.6 °F79 %30.38 in10.0 miWest (280°)6.9 mphClear
8:35 PM14.0 °F8.6 °F79 %30.38 in10.0 miWest (280°)6.9 mphClear
8:55 PM12.2 °F8.6 °F85 %30.37 in10.0 miWest (260°)5.8 mphClear
9:15 PM12.2 °F8.6 °F85 %30.37 in10.0 miWSW (250°)5.8 mphClear
9:35 PM12.2 °F6.8 °F79 %30.36 in10.0 miWSW (250°)3.5 mphClear
9:55 PM12.2 °F6.8 °F79 %30.36 in10.0 miWSW (250°)3.5 mphClear
10:15 PM12.2 °F6.8 °F79 %30.35 in10.0 miSW (220°)5.8 mphClear
10:35 PM12.2 °F6.8 °F79 %30.36 in10.0 miWSW (250°)4.6 mphClear
10:55 PM10.4 °F6.8 °F85 %30.35 in10.0 miWSW (240°)4.6 mphClear
11:15 PM12.2 °F6.8 °F79 %30.35 in10.0 miSW (230°)4.6 mphClear
11:35 PM12.2 °F6.8 °F79 %30.34 in10.0 miSW (230°)4.6 mphClear
11:55 PM12.2 °F6.8 °F79 %30.34 in10.0 miWSW (240°)6.9 mphClear
Hourly data recorded from KFFL, located miles away from Bonaparte, Iowa







STORIES FROM OUR PARTNERS